Flag for Norway Weather past 2 weeks in Sandnes, Norway

Now
68 °F

Scattered showers. Broken clouds.


Feels Like: 68 °F
Forecast: 62 / 72 °F
Wind: 10 mph from South

Location: Stavanger / Sola

Current Time: Aug 1, 2014 at 6:43:40 PM

Latest Report: Aug 1, 2014 at 5:50 PM


Visibility: N/A

Pressure: 29.80 "Hg

Humidity: 64%

Dew point: 55 °F

Location of SandnesLocation

Historic Weather in Sandnes — Graph

°F

Sandnes temperature yesterday

Maximum temperature yesterday: 66 °F (at 4:50 PM)
Minimum temperature yesterday: 57 °F (at 2:50 AM)
Average temperature yesterday: 62 °F

Past Weeks' High & Low Weather Summary

 TemperatureHumidityPressure
High84 °F (Jul 20, 3:20 PM)100% (Jul 28, 6:20 AM)30.30 "Hg (Jul 28, 6:20 AM)
Low55 °F (Jul 19, 4:50 AM)37% (Jul 20, 1:20 PM)29.68 "Hg (Jul 31, 1:50 AM)
Average69 °F69%30.01 "Hg
* Reported Jul 17 5:20 PM — Aug 1 5:20 PM, Sandnes, Weather by CustomWeather, © 2014

Note: Actual official high and low records may vary slightly from our data, if they occured in-between our weather recording intervals... More about our weather records

Advertising

Sandnes weather history for previous 24 hours

 ConditionsComfort  
Time TempWeatherWind HumidityBarometerVisibility
5:20 PM
Aug 1
66 °FScattered showers. Broken clouds.8 mph78%29.80 "HgN/A
4:50 PM68 °FScattered showers. Broken clouds.12 mph64%29.80 "HgN/A
4:20 PM70 °FBroken clouds.13 mph60%29.80 "HgN/A
3:50 PM72 °FPartly sunny.10 mph57%29.80 "HgN/A
3:20 PM72 °FPartly sunny.9 mph57%29.80 "HgN/A
2:50 PM72 °FScattered clouds.10 mph57%29.80 "HgN/A
2:20 PM68 °FScattered clouds.9 mph60%29.80 "HgN/A
1:50 PM70 °FScattered clouds.10 mph60%29.80 "HgN/A
1:20 PM68 °FScattered clouds.9 mph60%29.80 "HgN/A
12:50 PM68 °FScattered clouds.10 mph60%29.80 "HgN/A
12:20 PM66 °FBroken clouds.9 mph68%29.80 "HgN/A
11:50 AM64 °FBroken clouds.5 mph73%29.80 "HgN/A
11:20 AM64 °FBroken clouds.2 mph73%29.80 "HgN/A
10:50 AM63 °FBroken clouds.5 mph77%29.80 "HgN/A
10:20 AM63 °FBroken clouds.3 mph73%29.80 "HgN/A
9:50 AM63 °FScattered showers. Broken clouds.5 mph83%29.80 "HgN/A
9:20 AM63 °FBroken clouds.2 mph77%29.77 "HgN/A
8:50 AM61 °FScattered showers. Broken clouds.6 mph88%29.77 "HgN/A
8:20 AM61 °FScattered showers. Broken clouds.5 mph88%29.77 "HgN/A
7:50 AM59 °FScattered showers. Broken clouds.3 mph94%29.77 "HgN/A
7:20 AM59 °FScattered showers. Broken clouds.1 mph94%29.77 "HgN/A
6:50 AM59 °FScattered showers. Partly sunny.3 mph94%29.77 "HgN/A
6:20 AM57 °FScattered showers. Passing clouds.5 mph94%29.77 "HgN/A
5:50 AM57 °FPassing clouds.7 mph94%29.74 "HgN/A
4:50 AM57 °FPartly cloudy.3 mph94%29.74 "Hg4 mi
3:50 AM57 °FPassing clouds.5 mph94%29.74 "HgN/A
2:50 AM57 °FPassing clouds.5 mph94%29.74 "HgN/A
1:50 AM57 °FPassing clouds.5 mph94%29.74 "HgN/A
12:50 AM57 °FLight rain. Partly cloudy.3 mph94%29.74 "HgN/A
12:20 AM57 °FPassing clouds.3 mph94%29.74 "HgN/A
11:50 PM
Jul 31
57 °FPassing clouds.3 mph94%29.74 "HgN/A
11:20 PM57 °FPartly cloudy.5 mph94%29.74 "Hg6 mi
10:50 PM57 °FDrizzle. Partly sunny.6 mph94%29.74 "Hg6 mi
10:20 PM59 °FDrizzle. Broken clouds.5 mph88%29.74 "HgN/A
9:50 PM61 °FDrizzle. Partly sunny.3 mph77%29.74 "HgN/A
9:20 PM63 °FDrizzle. Broken clouds.5 mph68%29.74 "HgN/A
8:50 PM63 °FBroken clouds.3 mph68%29.74 "HgN/A
8:20 PM63 °FBroken clouds.5 mph68%29.74 "HgN/A
7:50 PM63 °FBroken clouds.6 mph68%29.74 "HgN/A
7:20 PM64 °FBroken clouds.6 mph68%29.74 "HgN/A
6:50 PM64 °FBroken clouds.8 mph68%29.74 "HgN/A
6:20 PM63 °FBroken clouds.8 mph77%29.77 "HgN/A
Weather by CustomWeather, © 2014

See weather overviewHow to use our weather pages